Weather History for PAKP - January, 2012

Change the Weather History Date:

Saturday, January 14, 2012

  Actual Average Record
Temperature  
Mean Temperature -28 °F -  
Max Temperature -22 °F 0 °F 28 °F (1997)
Min Temperature -34 °F -13 °F -43 °F (2008)
Degree Days  
Heating Degree Days 93    
Moisture  
Dew Point -29 °F    
Average Humidity 76    
Maximum Humidity 76    
Minimum Humidity 76    
Precipitation  
Precipitation 0.00 in - - ()
Sea Level Pressure  
Sea Level Pressure 30.60 in    
Wind  
Wind Speed 0 mph (SSW)    
Max Wind Speed 7 mph    
Max Gust Speed -    
Visibility 6 miles    
Events      
Averages and records for this station are not official NWS values.
T = Trace of Precipitation, MM = Missing Value Source: NWS Daily Summary

Daily Weather History Graph

Daily Weather History Graph

Search for Another Location

Airport or City:

Trip Planner

Search our weather history database for the weather conditions in past years. The results will help you decide how hot, cold, wet, or windy it might be!

Date:

Astronomy

Jan. 14, 2012 Rise Set
Actual Time 11:49 AM AKST 2:43 PM AKST
Civil Twilight 10:04 AM AKST 4:28 PM AKST
Nautical Twilight 8:43 AM AKST 5:49 PM AKST
Astronomical Twilight 7:34 AM AKST 6:58 PM AKST
Moon No Moon Rise 10:36 AM AKST (1/14)
Length of Visible Light 6h 24m
Length of Day
2h 54m
Waning Gibbous, 67% of the Moon is Illuminated
Jan 14
Waning Gibbous
Jan 16
Last Quarter
Jan 22
New
Jan 30
First Quarter
Feb 7
Full

Hourly Weather History & Observations

Time (AKST) Temp. Windchill Dew Point Humidity Pressure Visibility Wind Dir Wind Speed Gust Speed Precip Events Conditions
12:16 AM -29.2 °F - - N/A% 30.52 in 8.0 mi Calm Calm - N/A   Overcast
12:36 AM -29.2 °F - - N/A% 30.52 in 7.0 mi Calm Calm - N/A   Overcast
12:56 AM -29.2 °F -41.2 °F - N/A% 30.53 in 5.0 mi South 3.5 mph - N/A   Overcast
1:16 AM -27.4 °F - - N/A% 30.53 in 4.0 mi Calm Calm - N/A   Overcast
1:36 AM -27.4 °F - - N/A% 30.54 in 4.0 mi Calm Calm - N/A   Overcast
1:56 AM -27.4 °F - - N/A% 30.54 in 4.0 mi Calm Calm - N/A   Overcast
2:16 AM -29.2 °F - - N/A% 30.55 in 8.0 mi Calm Calm - N/A   Scattered Clouds
2:36 AM -27.4 °F - - N/A% 30.55 in 10.0 mi Calm Calm - N/A   Mostly Cloudy
2:56 AM -29.2 °F - - N/A% 30.56 in 7.0 mi Calm Calm - N/A   Overcast
3:16 AM -29.2 °F - - N/A% 30.56 in 8.0 mi Calm Calm - N/A   Overcast
3:36 AM -27.4 °F - - N/A% 30.57 in 5.0 mi Calm Calm - N/A   Overcast
3:56 AM -29.2 °F - - N/A% 30.57 in 8.0 mi Calm Calm - N/A   Mostly Cloudy
4:16 AM -31.0 °F - - N/A% 30.56 in 10.0 mi Calm Calm - N/A   Scattered Clouds
4:36 AM -29.2 °F - - N/A% 30.56 in 10.0 mi Calm Calm - N/A   Partly Cloudy
4:56 AM -29.2 °F - - N/A% 30.57 in 10.0 mi Calm Calm - N/A   Clear
5:16 AM -32.8 °F - - N/A% 30.57 in 10.0 mi Calm Calm - N/A   Clear
5:36 AM -32.8 °F - - N/A% 30.58 in 10.0 mi Calm Calm - N/A   Clear
5:56 AM -32.8 °F - - N/A% 30.58 in 9.0 mi Calm Calm - N/A   Clear
6:16 AM -34.6 °F - - N/A% 30.57 in 10.0 mi Calm Calm - N/A   Clear
6:36 AM -32.8 °F - - N/A% 30.57 in 10.0 mi Calm Calm - N/A   Clear
6:56 AM -32.8 °F - - N/A% 30.58 in 9.0 mi Calm Calm - N/A   Scattered Clouds
7:16 AM -32.8 °F - - N/A% 30.58 in 10.0 mi Calm Calm - N/A   Overcast
7:36 AM -32.8 °F - - N/A% 30.58 in 10.0 mi Calm Calm - N/A   Overcast
7:56 AM -32.8 °F - - N/A% 30.59 in 2.0 mi Calm Calm - N/A   Overcast
8:16 AM -32.8 °F - - N/A% 30.59 in 2.5 mi Calm Calm - N/A   Overcast
8:36 AM -32.8 °F -48.2 °F - N/A% 30.59 in 8.0 mi South 4.6 mph - N/A   Overcast
8:56 AM -31.0 °F -50.3 °F - N/A% 30.60 in 10.0 mi South 6.9 mph - N/A   Overcast
9:16 AM -32.8 °F - - N/A% 30.60 in 3.0 mi Calm Calm - N/A   Overcast
9:36 AM -32.8 °F -45.3 °F - N/A% 30.60 in 8.0 mi SSW 3.5 mph - N/A   Overcast
9:56 AM -32.8 °F - - N/A% 30.61 in 10.0 mi Calm Calm - N/A   Overcast
10:16 AM -31.0 °F - - N/A% 30.61 in 4.0 mi Calm Calm - N/A   Overcast
10:36 AM -29.2 °F - - N/A% 30.61 in 3.0 mi Calm Calm - N/A   Overcast
10:56 AM -31.0 °F - - N/A% 30.62 in 2.0 mi Calm Calm - N/A   Overcast
11:16 AM -29.2 °F - - N/A% 30.62 in 2.5 mi Calm Calm - N/A   Overcast
11:36 AM -29.2 °F - - N/A% 30.62 in 2.5 mi Calm Calm - N/A   Overcast
11:56 AM -29.2 °F - - N/A% 30.63 in 2.5 mi Calm Calm - N/A   Overcast
12:16 PM -29.2 °F - - N/A% 30.63 in 2.5 mi Calm Calm - N/A   Overcast
12:36 PM -29.2 °F - - N/A% 30.63 in 3.0 mi Calm Calm - N/A   Overcast
12:56 PM -27.4 °F - - N/A% 30.64 in 6.0 mi Calm Calm - N/A   Overcast
1:16 PM -29.2 °F - - N/A% 30.64 in 5.0 mi Calm Calm - N/A   Overcast
1:36 PM -29.2 °F - - N/A% 30.65 in 5.0 mi Calm Calm - N/A   Mostly Cloudy
1:56 PM -29.2 °F - - N/A% 30.65 in 7.0 mi Calm Calm - N/A   Overcast
2:16 PM -27.4 °F - - N/A% 30.65 in 4.0 mi Calm Calm - N/A   Overcast
2:36 PM -27.4 °F - - N/A% 30.66 in 4.0 mi Calm Calm - N/A   Overcast
2:56 PM -27.4 °F - - N/A% 30.66 in 3.0 mi Calm Calm - N/A   Overcast
3:16 PM -25.6 °F - - N/A% 30.66 in 4.0 mi Calm Calm - N/A   Overcast
3:36 PM -23.8 °F - - N/A% 30.66 in 3.0 mi Calm Calm - N/A   Overcast
3:56 PM -27.4 °F - - N/A% 30.66 in 6.0 mi Calm Calm - N/A   Overcast
4:16 PM -27.4 °F - - N/A% 30.66 in 4.0 mi Calm Calm - N/A   Overcast
4:36 PM -25.6 °F - - N/A% 30.66 in 6.0 mi Calm Calm - N/A   Overcast
4:56 PM -22.0 °F -33.0 °F - N/A% 30.66 in 10.0 mi North 3.5 mph - N/A   Overcast
5:16 PM -25.6 °F - - N/A% 30.66 in 10.0 mi Calm Calm - N/A   Overcast
5:36 PM -23.8 °F - - N/A% 30.67 in 9.0 mi Calm Calm - N/A   Overcast
5:56 PM -23.8 °F - -29.2 °F 76% 30.67 in 8.0 mi Calm Calm - N/A   Mostly Cloudy
6:16 PM -23.8 °F - - N/A% 30.67 in 10.0 mi Calm Calm - N/A   Overcast
6:36 PM -23.8 °F - - N/A% 30.68 in 10.0 mi Calm Calm - N/A   Mostly Cloudy
6:56 PM -23.8 °F - - N/A% 30.68 in 1.5 mi Calm Calm - N/A   Overcast
7:16 PM -25.6 °F -39.8 °F - N/A% 30.68 in 2.0 mi South 4.6 mph - N/A   Overcast
7:36 PM -25.6 °F - - N/A% 30.68 in 5.0 mi Calm Calm - N/A   Overcast
7:56 PM -25.6 °F - - N/A% 30.67 in 10.0 mi Calm Calm - N/A   Overcast
8:16 PM -25.6 °F - - N/A% 30.67 in 10.0 mi Calm Calm - N/A   Overcast
8:36 PM -27.4 °F -45.9 °F - N/A% 30.67 in 10.0 mi South 6.9 mph - N/A   Overcast
8:56 PM -25.6 °F -37.1 °F - N/A% 30.68 in 7.0 mi SW 3.5 mph - N/A   Overcast
9:16 PM -25.6 °F -37.1 °F - N/A% 30.67 in 10.0 mi South 3.5 mph - N/A   Overcast
9:36 PM -25.6 °F -39.8 °F - N/A% 30.67 in 10.0 mi SSW 4.6 mph - N/A   Overcast
9:56 PM -25.6 °F -37.1 °F - N/A% 30.68 in 10.0 mi South 3.5 mph - N/A   Overcast
10:16 PM -25.6 °F -39.8 °F - N/A% 30.67 in 5.0 mi SSW 4.6 mph - N/A   Overcast
10:36 PM -25.6 °F -43.8 °F - N/A% 30.68 in 10.0 mi South 6.9 mph - N/A   Scattered Clouds
10:56 PM -27.4 °F -45.9 °F - N/A% 30.68 in 10.0 mi South 6.9 mph - N/A   Clear
11:16 PM -29.2 °F -49.7 °F - N/A% 30.68 in 10.0 mi South 8.1 mph - N/A   Clear
11:36 PM -29.2 °F -51.2 °F - N/A% 30.68 in 10.0 mi South 9.2 mph - N/A   Scattered Clouds
11:56 PM -29.2 °F - - N/A% 30.68 in 8.0 mi Calm Calm - N/A   Overcast